[[{"header":{"parameterUnit":"m.s-1","parameterCategory":1,"la1":30.2991,"la2":30.254,"lo1":-89.0895,"lo2":-89.0444,"dy":0.0017,"dx":0.0017,"nx":28,"ny":28,"refTime":"2025-03-22T09:00:00:Z","depth":0,"parameterNumber":2,"parameterNumberName":"U-component_of_WINDS"},"data":[0,0,0,0,0,0,0,0,0,0,0,0,0,0,0,0,0,0,0,0,0,0,0,0,0,0,0,0,0,0,0,0,0,0,0,0,0,0,0,0,0,0,0,0,0,0,0,0,0,0,0,0,0,0,0,0,0,0,0.0131,0.0133,0,0.0272,0.0274,0.0275,0.0343,0.0343,0.0343,0.0343,0.0489,0.0493,0.0496,0,0,0,0,0,0,0,0,0,0,0,0,0,-0.0079,-0.0075,0.0131,0.0133,0.0135,0.0272,0.0274,0.0276,0.0343,0.0343,0.0343,0.0343,0.0487,0.0492,0.0497,0,0,0,0,0,0,0,0,0,0,0,0,0,0.0032,-0.0074,0.0131,0.0185,0.0191,0.0272,0.0274,0.0276,0.0343,0.0343,0.0343,0.0343,0.0486,0.0492,0.0498,0.0536,0,0,0.0516,0.0518,0,0,0,0,0,0,0,0,0.0026,0.004,0.0175,0.0181,0.0188,0.029,0.0253,0.0363,0.0343,0.0285,0.0343,0.0343,0.0423,0.0434,0.0461,0.0542,0.0549,0.0516,0.052,0.0522,0.0524,0,0,0,0,0,0,0,0.0018,0.0034,0.0187,0.0177,0.0185,0.0202,0.0218,0.0275,0.0353,0.029,0.0296,0.0311,0.0426,0.0455,0.0464,0.0551,0.0516,0.0521,0.0525,0.0527,0.0671,0.0672,0,0,0,0,0,0,0.0001,0.0027,0.0183,0.0191,0.0105,0.0206,0.0224,0.0257,0.0352,0.0367,0.0311,0.0314,0.0445,0.0458,0.047,0.0521,0.0522,0.0528,0.0531,0.0671,0.0671,0.0672,0,0,0,0,0,0,-0.0003,0.0015,0.0177,0.0111,0.0133,0.021,0.0247,0.026,0.0289,0.0368,0.0383,0.0326,0.0445,0.0462,0.0519,0.0527,0.053,0.0536,0.0671,0.0671,0.0671,0.0623,0,0,0,0,0,0,-0.001,0.0012,0.0027,0.0111,0.0136,0.0223,0.0248,0.0263,0.0298,0.0303,0.0386,0.0399,0.0446,0.0509,0.0524,0.0535,0.054,0.067,0.0671,0.0671,0.0624,0.0622,0.062,0,0,0,0,0,-0.0017,0.0008,0.0028,0.0046,0.0156,0.0223,0.0238,0.0291,0.0299,0.0315,0.0366,0.0397,0.0523,0.0515,0.0532,0.0545,0.067,0.0671,0.0671,0.0625,0.0622,0.062,0,0,0,0,0,0,-0.0075,0.002,0.0043,0.0096,0.0151,0.0234,0.0256,0.0286,0.034,0.0342,0.0407,0.0425,0.0476,0.0516,0.0505,0.0587,0.06,0.0604,0.0559,0.0556,0.0554,0.0544,0.0545,0,0,0,0,0,-0.0082,-0.0036,0.0045,0.0085,0.0111,0.0178,0.021,0.0246,0.0305,0.0329,0.0384,0.0441,0.0494,0.0527,0.058,0.063,0.0649,0.0647,0.0645,0.0643,0.0646,0.0675,0.0676,0.0674,0.0674,0.0674,0,0,-0.0095,-0.0037,-0.0012,0.0075,0.0121,0.0168,0.0198,0.0246,0.0281,0.0336,0.0394,0.0436,0.0504,0.0557,0.0584,0.0592,0.065,0.0644,0.0641,0.0646,0.0676,0.0676,0.0676,0.0674,0.0674,0.0674,0,0,-0.0095,-0.0047,-0.0008,0.0038,0.0108,0.0153,0.0161,0.024,0.0271,0.0329,0.0372,0.0415,0.0504,0.0551,0.0586,0.0603,0.0633,0.0618,0.0607,0.0635,0.0635,0.0635,0.0642,0.0643,0.0621,0.0621,0.0621,0,-0.012,-0.0048,0.0008,0.0053,0.009,0.0142,0.0181,0.0223,0.0307,0.0331,0.034,0.0453,0.0502,0.0567,0.0571,0.0598,0.0611,0.061,0.063,0.0631,0.0633,0.0639,0.0642,0.0619,0.0619,0.0619,0.0619,0,-0.0082,-0.0033,-0.0011,0.0069,0.0108,0.015,0.0212,0.0245,0.0278,0.0322,0.0381,0.0441,0.0508,0.0526,0.0558,0.0596,0.0599,0.0618,0.0632,0.0629,0.0637,0.064,0.0616,0.0616,0.0617,0.0618,0,0,-0.0114,-0.0005,0.0003,0.0039,0.012,0.0159,0.0204,0.0268,0.0295,0.0351,0.039,0.0464,0.0482,0.0522,0.0561,0.0585,0.0595,0.0601,0.0604,0.0598,0.064,0.0626,0.0628,0.0615,0.0616,0.0617,0.0635,0,-0.0102,-0.002,0.0031,0.0093,0.0139,0.0188,0.0227,0.0281,0.0323,0.0369,0.0415,0.0467,0.0487,0.0511,0.0537,0.0588,0.0605,0.0588,0.0653,0.0655,0.0635,0.0632,0.0617,0.0631,0.0638,0.0639,0.0639,0,-0.0077,-0.0023,0.0043,0.0118,0.014,0.0174,0.0237,0.0279,0.0341,0.037,0.0415,0.0453,0.0503,0.0512,0.0581,0.0568,0.0598,0.0627,0.0629,0.0638,0.0647,0.0641,0.0637,0.0639,0.0644,0.0644,0.0644,0,-0.0107,-0.0018,0.0034,0.0063,0.0153,0.0176,0.0214,0.0276,0.0312,0.0367,0.039,0.045,0.0483,0.0529,0.0583,0.0585,0.0647,0.0661,0.0673,0.0671,0.0684,0.0683,0.0685,0.0702,0.0702,0.0702,0.0702,0,-0.0099,-0.0061,0.0022,0.0053,0.0098,0.0156,0.0199,0.0241,0.0296,0.0337,0.0384,0.0421,0.049,0.0535,0.0578,0.0629,0.0643,0.0668,0.0679,0.0665,0.0661,0.0685,0.0686,0.0703,0.0703,0.0702,0.0702,0,-0.0124,-0.0068,-0.0009,0.0071,0.0092,0.0121,0.019,0.0223,0.0267,0.0318,0.0333,0.0403,0.0459,0.0517,0.0594,0.0622,0.0672,0.0687,0.0651,0.0657,0.0666,0.0664,0.0684,0.069,0.0702,0.0702,0.0702,0,-0.0123,-0.0092,-0.0009,0.0021,0.0059,0.0107,0.0143,0.0202,0.0238,0.0311,0.0335,0.0394,0.0445,0.0533,0.0591,0.065,0.0667,0.067,0.0676,0.066,0.0667,0.0665,0.0668,0.0667,0.0667,0.0667,0.0666,0,-0.0126,-0.01,-0.005,0.001,0.0052,0.0102,0.0154,0.0177,0.0246,0.0284,0.0342,0.0381,0.0459,0.0518,0.0583,0.0623,0.0656,0.0664,0.067,0.0655,0.0633,0.0646,0.0645,0.0663,0.0664,0.0664,0.0664,0.0664,-0.0138,-0.0108,-0.0045,0.001,0.0055,0.0102,0.0137,0.0185,0.0234,0.0302,0.0334,0.0392,0.0454,0.0545,0.0584,0.0631,0.064,0.0649,0.0651,0.0652,0.0649,0.0625,0.0643,0.0643,0.0643,0.0643,0.0644,0,-0.0138,-0.0095,-0.0046,0.0025,0.0068,0.0095,0.0154,0.0188,0.0238,0.0293,0.0342,0.0408,0.0466,0.0528,0.0589,0.0614,0.0631,0.0628,0.0627,0.0636,0.0637,0.0626,0.0614,0.0614,0.0614,0.0614,0.0614,0.0614,-0.0134,-0.0082,-0.0048,0.0026,0.007,0.0127,0.0158,0.0202,0.0246,0.0318,0.0366,0.0405,0.0463,0.0529,0.0583,0.0599,0.062,0.0613,0.0634,0.0634,0.0636,0.0638,0.0628,0.0617,0.0617,0.063,0.063,0.063]},{"header":{"parameterUnit":"m.s-1","parameterCategory":1,"la1":30.2991,"la2":30.254,"lo1":-89.0895,"lo2":-89.0444,"dy":0.0017,"dx":0.0017,"nx":28,"ny":28,"refTime":"2025-03-22T09:00:00:Z","depth":0,"parameterNumber":3,"parameterNumberName":"V-component_of_WINDS"},"data":[0,0,0,0,0,0,0,0,0,0,0,0,0,0,0,0,0,0,0,0,0,0,0,0,0,0,0,0,0,0,0,0,0,0,0,0,0,0,0,0,0,0,0,0,0,0,0,0,0,0,0,0,0,0,0,0,0,0,3.3764,3.3764,0,3.3723,3.3723,3.3722,3.3651,3.3649,3.3648,3.3646,3.3605,3.3605,3.3605,0,0,0,0,0,0,0,0,0,0,0,0,0,3.378,3.3781,3.3764,3.3764,3.3763,3.3723,3.3723,3.3722,3.3651,3.3649,3.3647,3.3646,3.3605,3.3605,3.3605,0,0,0,0,0,0,0,0,0,0,0,0,0,3.376,3.3781,3.3764,3.3722,3.3718,3.3724,3.3723,3.3722,3.3651,3.3649,3.3647,3.3645,3.3605,3.3605,3.3605,3.3648,0,0,3.3606,3.3606,0,0,0,0,0,0,0,0,3.3761,3.3759,3.3729,3.3725,3.3721,3.369,3.3713,3.3697,3.3652,3.3677,3.3646,3.3644,3.3635,3.3633,3.3629,3.3646,3.3644,3.3606,3.3606,3.3606,3.3606,0,0,0,0,0,0,0,3.3763,3.3761,3.3748,3.3729,3.3724,3.3706,3.3701,3.371,3.3668,3.3674,3.3669,3.3665,3.3632,3.3629,3.3628,3.3643,3.3606,3.3606,3.3606,3.3607,3.3695,3.3697,0,0,0,0,0,0,3.377,3.3762,3.3749,3.3747,3.3736,3.3708,3.3702,3.3702,3.3667,3.366,3.3667,3.3662,3.363,3.3628,3.3626,3.3675,3.3606,3.3607,3.3607,3.3693,3.3695,3.3698,0,0,0,0,0,0,3.3771,3.377,3.3751,3.3753,3.3749,3.3709,3.371,3.3702,3.3699,3.3662,3.3654,3.3672,3.3628,3.3626,3.3643,3.3673,3.3607,3.3607,3.369,3.3694,3.3697,3.3773,0,0,0,0,0,0,3.3772,3.377,3.3786,3.3754,3.375,3.3769,3.3712,3.3703,3.37,3.3693,3.3664,3.3658,3.3626,3.3643,3.3644,3.3672,3.3607,3.3687,3.3692,3.3696,3.3767,3.3778,3.3787,0,0,0,0,0,3.3772,3.3808,3.3787,3.3786,3.3768,3.3771,3.3768,3.3731,3.3702,3.3718,3.3694,3.3659,3.3669,3.3646,3.3646,3.3674,3.3685,3.369,3.3695,3.3763,3.3776,3.3787,0,0,0,0,0,0,3.3844,3.3803,3.3779,3.3806,3.3792,3.3758,3.3777,3.3746,3.374,3.3734,3.3689,3.3683,3.3707,3.3692,3.3667,3.3714,3.3672,3.3677,3.3723,3.3736,3.3745,3.3749,3.3607,0,0,0,0,0,3.3863,3.3869,3.3833,3.386,3.3854,3.3817,3.3817,3.379,3.3774,3.3768,3.3745,3.3731,3.3731,3.3732,3.373,3.3765,3.3758,3.3784,3.3794,3.3803,3.3808,3.3827,3.3838,3.3714,3.3714,3.3714,0,0,3.3903,3.3881,3.3887,3.3874,3.386,3.3867,3.3812,3.3822,3.3827,3.3769,3.3785,3.3768,3.3749,3.3776,3.3787,3.3764,3.3841,3.3809,3.3816,3.3817,3.3833,3.3845,3.3855,3.3717,3.3717,3.3716,0,0,3.3978,3.3962,3.3983,3.3971,3.3951,3.3926,3.3932,3.3903,3.3889,3.3904,3.3862,3.3867,3.3868,3.3857,3.3852,3.3925,3.3893,3.3926,3.3978,3.3997,3.4007,3.4015,3.4043,3.4053,3.3931,3.3931,3.3931,0,3.4029,3.4038,3.3998,3.4011,3.4007,3.3955,3.3977,3.3967,3.3948,3.3947,3.3922,3.3923,3.3907,3.3931,3.395,3.3946,3.3952,3.3929,3.4009,3.4017,3.4024,3.405,3.406,3.3935,3.3935,3.3934,3.3934,0,3.4103,3.411,3.413,3.4113,3.4111,3.4128,3.4092,3.4095,3.4068,3.4047,3.4064,3.4042,3.4036,3.404,3.4014,3.4061,3.4048,3.4017,3.3973,3.4041,3.4064,3.4074,3.3941,3.394,3.3939,3.3937,0,0,3.4222,3.4184,3.4192,3.4185,3.416,3.4164,3.418,3.4174,3.4178,3.4167,3.418,3.4182,3.4154,3.4148,3.412,3.4137,3.4198,3.4103,3.4102,3.4123,3.4251,3.4275,3.4287,3.4176,3.4178,3.4179,3.4253,0,3.4293,3.4318,3.4283,3.4315,3.4322,3.4273,3.4287,3.4274,3.4254,3.4257,3.4235,3.4239,3.42,3.4196,3.421,3.4188,3.4223,3.4182,3.4188,3.4189,3.4196,3.4299,3.4325,3.4395,3.4261,3.4263,3.4264,0,3.4379,3.4373,3.4406,3.438,3.4382,3.4395,3.4387,3.4391,3.4375,3.4359,3.4354,3.4321,3.4336,3.4293,3.4313,3.4286,3.4287,3.4276,3.4278,3.4278,3.4231,3.4303,3.4416,3.4428,3.4278,3.4277,3.4276,0,3.4465,3.4464,3.4485,3.4479,3.4449,3.446,3.4448,3.443,3.443,3.4423,3.4423,3.4418,3.4416,3.4414,3.4381,3.4353,3.4406,3.436,3.4394,3.4395,3.4408,3.4408,3.4524,3.4407,3.4407,3.4407,3.4406,0,3.4548,3.4571,3.4523,3.4535,3.456,3.452,3.4545,3.4528,3.4513,3.4522,3.448,3.4489,3.4445,3.4451,3.4425,3.4447,3.4446,3.4434,3.4428,3.4439,3.444,3.4439,3.4434,3.4409,3.4409,3.4408,3.4408,0,3.4648,3.4617,3.4636,3.4606,3.4599,3.4619,3.4594,3.4605,3.4582,3.4595,3.4595,3.4561,3.4565,3.4532,3.453,3.4513,3.4547,3.4531,3.4552,3.4548,3.4584,3.4582,3.4705,3.4719,3.4592,3.4593,3.4594,0,3.4704,3.472,3.4693,3.4696,3.4686,3.4692,3.4691,3.4653,3.4654,3.4638,3.4651,3.4652,3.465,3.4659,3.4634,3.4633,3.4617,3.466,3.4616,3.4628,3.4619,3.4619,3.4621,3.467,3.4671,3.4673,3.4674,0,3.4807,3.4791,3.4791,3.4787,3.4788,3.4782,3.4774,3.4779,3.4737,3.4741,3.4745,3.4744,3.4742,3.4744,3.4737,3.4726,3.4694,3.4688,3.4696,3.4708,3.472,3.4715,3.4578,3.4685,3.4684,3.4683,3.4682,3.4682,3.4887,3.49,3.4883,3.4886,3.4876,3.4869,3.4879,3.4858,3.486,3.4856,3.4833,3.4842,3.4827,3.4815,3.4807,3.4813,3.4792,3.4804,3.4807,3.481,3.4818,3.4719,3.4812,3.4811,3.4811,3.4811,3.481,0,3.4989,3.4976,3.4979,3.4969,3.4971,3.494,3.493,3.4935,3.4942,3.4931,3.4931,3.4936,3.4938,3.4913,3.4912,3.4922,3.4908,3.4923,3.4923,3.4921,3.4835,3.4829,3.4935,3.4935,3.4935,3.4935,3.4935,3.4935,3.5043,3.5063,3.5045,3.5061,3.5048,3.5056,3.5053,3.5047,3.5038,3.5046,3.5047,3.5031,3.5015,3.5013,3.5014,3.5006,3.5008,3.503,3.5018,3.4939,3.4927,3.4915,3.4909,3.503,3.503,3.5102,3.5103,3.5104]}]]